Skip Page Navigation
NASA JPL Caltech
NASA Logo - Jet Propulsion Laboratory + View the NASA Portal
+ Center for Near-Earth Object Studies
JPL Home Earth Solar System Stars & Galaxies Technology
JPL Solar System Dynamics
BODIES ORBITS EPHEMERIDES TOOLS PHYSICAL DATA DISCOVERY FAQ SITE MAP
IMPORTANT: The SSD Announcement email list is now available. Major changes are coming in the near future, including possible hostname and/or URL changes. To be notified of such changes, subscribe to this email list.

Please visit this page for more details.


JPL Small-Body Database Browser
Search: [ help ]  
351754 (2006 DH149)
Classification: Main-belt Asteroid          SPK-ID: 2351754
Ephemeris | Orbit Diagram | Orbital Elements | Mission Design | Physical Parameters | Discovery Circumstances | Close-Approach Data ]

[ show orbit diagram ]
Orbital Elements at Epoch 2458600.5 (2019-Apr-27.0) TDB
Reference: JPL 4 (heliocentric ecliptic J2000)
 Element Value Uncertainty (1-sigma)   Units 
e .149448691534189 9.8397e-08  
a 2.370315453967278 2.3726e-08 au
q 2.016074910848601 2.3592e-07 au
i 2.744516102610122 1.1107e-05 deg
node 337.7486163157261 0.00014809 deg
peri 121.3664385184037 0.00016689 deg
M 275.5554079504568 6.5466e-05 deg
tp 2458913.163359607015
(2020-Mar-04.66335961)
0.00024447 TDB
period 1332.930940000131
3.65
2.0014e-05
5.48e-08
d
yr
n .2700815092490573 4.0552e-09 deg/d
Q 2.724555997085955 2.7272e-08 au
  Orbit Determination Parameters
   # obs. used (total)      87  
   data-arc span      7056 days (19.32 yr)  
   first obs. used      1997-11-30  
   last obs. used      2017-03-26  
   planetary ephem.      DE431  
   SB-pert. ephem.      SB431-N16  
   condition code      0  
   norm. resid. RMS      .65232  
   source      ORB  
   producer      Otto Matic  
   solution date      2017-Apr-10 07:34:43  

Additional Information
 Earth MOID = 1.03468 au 
 Jupiter MOID = 2.42175 au 
 T_jup = 3.528 
[ show covariance matrix ]

Ephemeris | Orbit Diagram | Orbital Elements | Mission Design | Physical Parameters | Discovery Circumstances | Close-Approach Data ]

Physical Parameter Table
Parameter Symbol Value Units Sigma Reference Notes
absolute magnitude H 18.3   n/a MPO353122  

351754 (2006 DH149)          Discovered 2006-Feb-25 by Spacewatch at Kitt Peak
Reference: 20130127/Numbers.arcLast Updated: 2013-01-31

[ show close-approach data ]
Alternate Designations
 2006 DH149 = 2008 UB300 
Ephemeris | Orbit Diagram | Orbital Elements | Mission Design | Physical Parameters | Discovery Circumstances | Close-Approach Data ]
ABOUT SSD CREDITS/AWARDS PRIVACY/COPYRIGHT GLOSSARY LINKS
FirstGov
(server date/time)  
NASA Home Page
Site Manager:   Ryan S. Park
Webmaster  Alan B. Chamberlin